Pompano Beach, FL

2:15 AM EDT on July 21, 2017 (GMT -0400)
Pompano Beach

Weather History for KPMP - September, 2014

Change the Weather History Date:

Thursday, September 18, 2014

  Actual Average Record
Temperature  
Mean Temperature 82 °F -  
Max Temperature 89 °F 90 °F 94 °F (1982)
Min Temperature 78 °F 74 °F 68 °F (1985)
Cooling Degree Days 18    
Growing Degree Days 32 (Base 50)    
Moisture  
Dew Point 73 °F    
Average Humidity 75    
Maximum Humidity 90    
Minimum Humidity 59    
Precipitation  
Precipitation 0.32 in - - ()
Sea Level Pressure  
Sea Level Pressure 29.91 in    
Wind  
Wind Speed 6 mph (SSW)    
Max Wind Speed 15 mph    
Max Gust Speed -    
Visibility 10 miles    
Events Rain , Thunderstorm    
Averages and records for this station are not official NWS values.
T = Trace of Precipitation, MM = Missing Value Source: NWS Daily Summary

Daily Weather History Graph

Daily Weather History Graph

Search for Another Location

Airport or City:

Trip Planner

Search our weather history database for the weather conditions in past years. The results will help you decide how hot, cold, wet, or windy it might be!

Date:

Astronomy

Sep. 18, 2014 Rise Set
Actual Time 7:07 AM EDT 7:21 PM EDT
Civil Twilight 6:44 AM EDT 7:44 PM EDT
Nautical Twilight 6:17 AM EDT 8:11 PM EDT
Astronomical Twilight 5:50 AM EDT 8:38 PM EDT
Moon 2:20 AM EDT (9/18) 3:50 PM EDT (9/18)
Length of Visible Light 13h 00m
Length of Day
12h 13m
Waning Crescent, 26% of the Moon is Illuminated
Sep 18
Waning Crescent
Sep 24
New
Oct 1
First Quarter
Oct 8
Full
Oct 15
Last Quarter

Hourly Weather History & Observations

Time (EDT) Temp. Heat Index Dew Point Humidity Pressure Visibility Wind Dir Wind Speed Gust Speed Precip Events Conditions
12:53 AM 80.1 °F 82.9 °F 69.1 °F 69% 29.94 in 10.0 mi WSW 8.1 mph - N/A   Clear
1:53 AM 80.1 °F 83.6 °F 71.1 °F 74% 29.92 in 10.0 mi WSW 6.9 mph - N/A   Clear
2:53 AM 79.0 °F - 71.1 °F 77% 29.90 in 10.0 mi SW 4.6 mph - N/A   Clear
3:53 AM 78.1 °F - 71.1 °F 79% 29.89 in 10.0 mi SW 3.5 mph - N/A   Clear
5:53 AM 78.1 °F - 72.0 °F 81% 29.90 in 10.0 mi Calm Calm - N/A   Clear
6:53 AM 78.1 °F - 72.0 °F 81% 29.91 in 10.0 mi Calm Calm - N/A   Clear
7:53 AM 79.0 °F - 72.0 °F 79% 29.93 in 10.0 mi Calm Calm - N/A   Mostly Cloudy
8:53 AM 81.0 °F 85.2 °F 72.0 °F 74% 29.94 in 10.0 mi West 5.8 mph - N/A   Partly Cloudy
9:53 AM 84.9 °F 90.7 °F 72.0 °F 65% 29.96 in 10.0 mi West 5.8 mph - N/A   Clear
10:53 AM 84.9 °F 90.7 °F 72.0 °F 65% 29.95 in 10.0 mi SSW 5.8 mph - N/A   Scattered Clouds
11:04 AM 84.9 °F 90.7 °F 72.0 °F 65% 29.95 in 10.0 mi WSW 3.5 mph - N/A   Mostly Cloudy
11:12 AM 84.9 °F 90.7 °F 72.0 °F 65% 29.94 in 10.0 mi West 4.6 mph - N/A   Scattered Clouds
11:53 AM 87.1 °F 92.8 °F 71.1 °F 59% 29.94 in 10.0 mi NW 6.9 mph - N/A   Scattered Clouds
12:53 PM 84.9 °F 90.7 °F 72.0 °F 65% 29.94 in 10.0 mi SE 10.4 mph - N/A   Overcast
1:53 PM 82.0 °F 87.9 °F 73.9 °F 76% 29.92 in 10.0 mi SW 9.2 mph - 0.27 in   Mostly Cloudy
2:53 PM 84.9 °F 92.1 °F 73.9 °F 69% 29.90 in 10.0 mi SE 10.4 mph - 0.04 in   Clear
3:19 PM 86.0 °F 93.8 °F 73.9 °F 67% 29.89 in 10.0 mi ESE 10.4 mph - N/A Thunderstorm Clear
3:34 PM 87.1 °F 95.4 °F 73.9 °F 65% 29.88 in 10.0 mi SSE 15.0 mph - N/A   Clear
3:49 PM 86.0 °F 93.4 °F 73.4 °F 66% 29.88 in 10.0 mi SE 11.5 mph - N/A Thunderstorm Clear
3:53 PM 86.0 °F 93.0 °F 73.0 °F 65% 29.89 in 10.0 mi SSE 12.7 mph - N/A Thunderstorm Clear
4:00 PM 84.9 °F 91.4 °F 73.0 °F 67% 29.89 in 10.0 mi SSE 13.8 mph - N/A Thunderstorm Thunderstorm
4:33 PM 84.0 °F 90.2 °F 73.0 °F 69% 29.87 in 10.0 mi South 9.2 mph - N/A   Clear
4:53 PM 86.0 °F 93.0 °F 73.0 °F 65% 29.88 in 10.0 mi South 8.1 mph - N/A   Partly Cloudy
5:53 PM 82.9 °F 88.8 °F 73.0 °F 72% 29.88 in 10.0 mi SE 9.2 mph - N/A   Scattered Clouds
6:03 PM 82.9 °F 88.0 °F 72.0 °F 69% 29.87 in 10.0 mi SSE 8.1 mph - N/A Thunderstorm Partly Cloudy
6:25 PM 82.9 °F 88.8 °F 73.0 °F 72% 29.88 in 10.0 mi SW 10.4 mph - N/A   Mostly Cloudy
6:35 PM 81.0 °F 86.7 °F 75.0 °F 82% 29.88 in 6.0 mi SSW 6.9 mph - 0.00 in Rain , Thunderstorm Light Rain
6:50 PM 80.6 °F 86.2 °F 75.2 °F 84% 29.89 in 6.0 mi SW 6.9 mph - 0.01 in Rain Light Rain
6:53 PM 81.0 °F 86.7 °F 75.0 °F 82% 29.89 in 8.0 mi SSW 4.6 mph - 0.01 in Rain Light Rain
7:45 PM 81.0 °F 86.7 °F 75.0 °F 82% 29.89 in 10.0 mi Calm Calm - 0.00 in Thunderstorm Mostly Cloudy
7:53 PM 81.0 °F 86.7 °F 75.0 °F 82% 29.90 in 10.0 mi Calm Calm - 0.00 in Thunderstorm Mostly Cloudy
8:10 PM 81.0 °F 87.3 °F 75.9 °F 85% 29.90 in 10.0 mi WNW 8.1 mph - N/A   Scattered Clouds
8:53 PM 78.1 °F - 73.9 °F 87% 29.92 in 10.0 mi SW 5.8 mph - N/A   Scattered Clouds
9:38 PM 78.1 °F - 73.9 °F 87% 29.93 in 10.0 mi South 3.5 mph - N/A Thunderstorm Mostly Cloudy
9:53 PM 78.1 °F - 73.9 °F 87% 29.92 in 10.0 mi SW 4.6 mph - N/A   Partly Cloudy
10:53 PM 78.1 °F - 75.0 °F 90% 29.95 in 10.0 mi Calm Calm - N/A   Clear
11:53 PM 78.1 °F - 75.0 °F 90% 29.94 in 10.0 mi West 3.5 mph - N/A   Clear